Calgary Springbank,

10:44 PM MST on November 22, 2017 (GMT -0700)
Calgary Springbank

Weather History for CYBW - August, 2014

Change the Weather History Date:

Friday, August 29, 2014

  Actual Average Record
Temperature  
Mean Temperature 52 °F -  
Max Temperature 71 °F 59 °F 84 °F (1996)
Min Temperature 32 °F 35 °F 30 °F (2003)
Degree Days  
Heating Degree Days 14    
Growing Degree Days 2 (Base 50)    
Moisture  
Dew Point 42 °F    
Average Humidity 91    
Maximum Humidity 100    
Minimum Humidity 41    
Precipitation  
Precipitation 0.00 in - - ()
Sea Level Pressure  
Sea Level Pressure 30.03 in    
Wind  
Wind Speed 3 mph ()    
Max Wind Speed 24 mph    
Max Gust Speed 37 mph    
Visibility 3.8 miles    
Events Fog , Rain    
Averages and records for this station are not official NWS values.
T = Trace of Precipitation, MM = Missing Value Source: Averaged Metar Reports

Daily Weather History Graph

Daily Weather History Graph

Search for Another Location

Airport or City:

Trip Planner

Search our weather history database for the weather conditions in past years. The results will help you decide how hot, cold, wet, or windy it might be!

Date:

Astronomy

Aug. 29, 2014 Rise Set
Actual Time 6:46 AM MDT 8:29 PM MDT
Civil Twilight 6:11 AM MDT 9:04 PM MDT
Nautical Twilight 5:28 AM MDT 9:46 PM MDT
Astronomical Twilight 4:40 AM MDT 10:34 PM MDT
Moon 11:10 AM MDT (8/29) 9:56 PM MDT (8/29)
Length of Visible Light 14h 52m
Length of Day
13h 43m
Waxing Crescent, 15% of the Moon is Illuminated
Aug 29
Waxing Crescent
Sep 2
First Quarter
Sep 8
Full
Sep 15
Last Quarter
Sep 24
New

Hourly Weather History & Observations

Time (MDT) Temp. Windchill Dew Point Humidity Pressure Visibility Wind Dir Wind Speed Gust Speed Precip Events Conditions
12:00 AM 41.0 °F 39.0 °F 39.2 °F 93% 30.14 in 9.0 mi NNW 3.5 mph - N/A   Scattered Clouds
12:16 AM 41.0 °F - 39.2 °F 93% 30.14 in 4.0 mi WNW 2.3 mph - N/A   Clear
12:25 AM 39.2 °F - 39.2 °F 100% 30.14 in 6.0 mi Calm Calm - N/A   Clear
1:00 AM 41.0 °F - 41.0 °F 100% 30.12 in 9.0 mi Variable 2.3 mph - N/A   Clear
1:04 AM 41.0 °F 39.0 °F 41.0 °F 100% 30.13 in 4.0 mi West 3.5 mph - N/A   Clear
1:05 AM 39.2 °F 37.0 °F 39.2 °F 100% 30.13 in 2.5 mi West 3.5 mph - N/A   Clear
1:09 AM 37.4 °F - 37.4 °F 100% 30.13 in 0.8 mi Calm Calm - N/A   Clear
1:10 AM 37.4 °F - 37.4 °F 100% 30.13 in 0.8 mi Calm Calm - N/A   Partly Cloudy
1:14 AM 37.4 °F - 37.4 °F 100% 30.13 in 0.4 mi Calm Calm - N/A Fog Fog
1:22 AM 37.4 °F 34.9 °F 35.6 °F 93% 30.14 in 0.5 mi SSW 3.5 mph - N/A Fog Fog
1:28 AM 37.4 °F - 37.4 °F 100% 30.13 in 1.2 mi SW 2.3 mph - N/A   Clear
1:31 AM 39.2 °F - 37.4 °F 93% 30.13 in 4.0 mi WSW 2.3 mph - N/A   Clear
1:32 AM 39.2 °F 37.0 °F 39.2 °F 100% 30.13 in 9.0 mi WSW 3.5 mph - N/A   Clear
2:00 AM 39.2 °F - 39.2 °F 100% 30.14 in 9.0 mi South 2.3 mph - N/A   Clear
2:17 AM 35.6 °F 32.8 °F 35.6 °F 100% 30.14 in 9.0 mi WNW 3.5 mph - N/A   Partly Cloudy
2:19 AM 37.4 °F - 35.6 °F 93% 30.14 in 1.5 mi WNW 2.3 mph - N/A   Partly Cloudy
2:20 AM 37.4 °F - 37.4 °F 100% 30.14 in 0.8 mi West 2.3 mph - N/A   Scattered Clouds
2:23 AM 37.4 °F 34.9 °F 37.4 °F 100% 30.14 in 0.4 mi West 3.5 mph - N/A Fog Fog
2:29 AM 37.4 °F 34.9 °F 37.4 °F 100% 30.14 in 0.1 mi North 3.5 mph - N/A Fog Fog
3:00 AM 35.6 °F 32.8 °F 35.6 °F 100% 30.14 in 0.4 mi North 3.5 mph - N/A Fog Fog
3:07 AM 37.4 °F 34.9 °F 37.4 °F 100% 30.13 in 0.2 mi North 3.5 mph - N/A Fog Fog
3:19 AM 35.6 °F - 35.6 °F 100% 30.13 in 0.5 mi NNW 2.3 mph - N/A Fog Fog
3:26 AM 35.6 °F - 35.6 °F 100% 30.13 in 0.4 mi NW 2.3 mph - N/A Fog Fog
4:00 AM 33.8 °F 30.8 °F 33.8 °F 100% 30.12 in 0.2 mi WNW 3.5 mph - N/A Fog Fog
4:18 AM 35.6 °F - 35.6 °F 100% 30.11 in 0.5 mi Variable 2.3 mph - N/A Fog Fog
4:29 AM 33.8 °F - 33.8 °F 100% 30.11 in 0.8 mi WNW 2.3 mph - N/A   Mostly Cloudy
4:30 AM 33.8 °F - 33.8 °F 100% 30.10 in 1.0 mi WNW 2.3 mph - N/A   Mostly Cloudy
4:47 AM 35.6 °F - 35.6 °F 100% 30.10 in 0.8 mi Variable 2.3 mph - N/A   Partly Cloudy
4:50 AM 35.6 °F - 35.6 °F 100% 30.10 in 0.6 mi NW 2.3 mph - N/A   Partly Cloudy
4:58 AM 32.0 °F - - N/A% 30.11 in 0.5 mi Variable 2.3 mph - N/A Fog Fog
5:00 AM 32.0 °F 28.7 °F - N/A% 30.11 in 0.6 mi WNW 3.5 mph - N/A   Mostly Cloudy
5:05 AM 32.0 °F 27.5 °F - N/A% 30.11 in 0.5 mi NW 4.6 mph - N/A Fog Light Freezing Fog
5:07 AM 32.0 °F 26.4 °F - N/A% 30.11 in 0.4 mi NW 5.8 mph - N/A Fog Light Freezing Fog
5:09 AM 32.0 °F 26.4 °F - N/A% 30.11 in 0.2 mi NW 5.8 mph - N/A Fog Fog
5:55 AM 32.0 °F 27.5 °F - N/A% 30.10 in 0.2 mi NW 4.6 mph - N/A Fog Light Freezing Fog
5:58 AM 32.0 °F - - N/A% 30.10 in 0.2 mi NNW 2.3 mph - N/A Fog Fog
6:00 AM 32.0 °F - - N/A% 30.09 in 0.2 mi North 2.3 mph - N/A Fog Fog
6:21 AM 32.0 °F - - N/A% 30.09 in 0.1 mi NNW 2.3 mph - N/A Fog Light Freezing Fog
6:55 AM 32.0 °F 28.7 °F - N/A% 30.08 in 0.2 mi NW 3.5 mph - N/A Fog Fog
7:00 AM 32.0 °F 28.7 °F - N/A% 30.08 in 0.2 mi NNW 3.5 mph - N/A Fog Fog
8:00 AM 35.6 °F - 35.6 °F 100% 30.06 in 0.2 mi Calm Calm - N/A Fog Fog
8:26 AM 37.4 °F - 37.4 °F 100% 30.06 in 0.5 mi WNW 2.3 mph - N/A Fog Fog
8:30 AM 39.2 °F - 39.2 °F 100% 30.05 in 1.0 mi WNW 2.3 mph - N/A   Mostly Cloudy
8:34 AM 39.2 °F 37.0 °F 39.2 °F 100% 30.05 in 3.0 mi NW 3.5 mph - N/A   Mostly Cloudy
8:35 AM 39.2 °F 37.0 °F 39.2 °F 100% 30.05 in 6.0 mi NW 3.5 mph - N/A   Mostly Cloudy
8:38 AM 39.2 °F - 39.2 °F 100% 30.04 in 9.0 mi NW 2.3 mph - N/A   Scattered Clouds
8:56 AM 41.0 °F 39.0 °F 41.0 °F 100% 30.04 in 5.0 mi North 3.5 mph - N/A   Scattered Clouds
8:59 AM 41.0 °F - 41.0 °F 100% 30.04 in 2.0 mi NNW 2.3 mph - N/A   Scattered Clouds
9:00 AM 41.0 °F - 41.0 °F 100% 30.04 in 1.5 mi NNW 2.3 mph - N/A   Scattered Clouds
9:04 AM 41.0 °F - 41.0 °F 100% 30.04 in 1.0 mi North 2.3 mph - N/A   Mostly Cloudy
9:14 AM 42.8 °F - 41.0 °F 93% 30.03 in 0.8 mi Variable 2.3 mph - N/A   Mostly Cloudy
9:18 AM 42.8 °F - 41.0 °F 93% 30.03 in 0.5 mi Calm Calm - N/A Fog Fog
9:19 AM 42.8 °F - 42.8 °F 100% 30.03 in 0.4 mi Calm Calm - N/A Fog Fog
9:46 AM 44.6 °F 43.1 °F 44.6 °F 100% 30.01 in 0.5 mi Variable 3.5 mph - N/A Fog Fog
9:49 AM 44.6 °F - 42.8 °F 93% 30.01 in 1.2 mi Calm Calm - N/A   Mostly Cloudy
9:51 AM 44.6 °F - 44.6 °F 100% 30.01 in 3.0 mi Calm Calm - N/A   Mostly Cloudy
9:52 AM 44.6 °F - 42.8 °F 93% 30.01 in 6.0 mi Calm Calm - N/A   Mostly Cloudy
9:58 AM 44.6 °F - 44.6 °F 100% 30.00 in 9.0 mi Variable 2.3 mph - N/A   Mostly Cloudy
10:00 AM 46.4 °F 45.2 °F 46.4 °F 100% 30.01 in 9.0 mi Variable 3.5 mph - N/A   Mostly Cloudy
11:00 AM 50.0 °F - 48.2 °F 94% 29.98 in 9.0 mi SE 8.1 mph - N/A   Scattered Clouds
12:00 PM 57.2 °F - 51.8 °F 82% 29.94 in 9.0 mi SSE 8.1 mph - N/A   Clear
1:00 PM 59.0 °F - 51.8 °F 77% 29.90 in 9.0 mi SSE 8.1 mph - N/A   Scattered Clouds
2:00 PM 60.8 °F - 51.8 °F 72% 29.88 in 9.0 mi SSE 9.2 mph - N/A   Clear
3:00 PM 64.4 °F - 55.4 °F 73% 29.85 in 9.0 mi SSE 9.2 mph - N/A   Partly Cloudy
4:00 PM 68.0 °F - 48.2 °F 49% 29.81 in 9.0 mi SSE 9.2 mph - N/A   Scattered Clouds
5:00 PM 66.2 °F - 46.4 °F 49% 29.80 in 8.0 mi SSE 8.1 mph - N/A   Mostly Cloudy
6:00 PM 71.6 °F - 46.4 °F 41% 29.76 in 9.0 mi SE 15.0 mph - N/A   Mostly Cloudy
7:00 PM 68.0 °F - 48.2 °F 49% 29.74 in 9.0 mi ESE 12.7 mph - N/A   Mostly Cloudy
8:00 PM 64.4 °F - 48.2 °F 56% 29.73 in 9.0 mi SSE 5.8 mph - N/A   Overcast
8:07 PM 60.8 °F - 50.0 °F 68% 29.76 in 9.0 mi West 18.4 mph 27.6 mph N/A   Overcast
8:15 PM 59.0 °F - 51.8 °F 77% 29.77 in 9.0 mi WNW 24.2 mph 36.8 mph N/A Rain Light Rain
8:30 PM 55.4 °F - 51.8 °F 88% 29.78 in 9.0 mi NW 12.7 mph 23.0 mph N/A   Overcast
9:00 PM 53.6 °F - 50.0 °F 88% 29.78 in 9.0 mi NW 11.5 mph - N/A   Mostly Cloudy
10:00 PM 51.8 °F - 48.2 °F 88% 29.78 in 9.0 mi NNW 6.9 mph - N/A   Mostly Cloudy
10:41 PM 55.4 °F - 44.6 °F 67% 29.75 in 9.0 mi West 17.3 mph - N/A   Mostly Cloudy
11:10 PM 53.6 °F - 46.4 °F 77% 29.76 in 9.0 mi NNW 12.7 mph - N/A   Mostly Cloudy